CMJFF KEYW-KEYW

Flight info

Callsign CMJFF
Flight time 0h 2m
Altitude 1200
Route DCT
Aircraft AS50/L-VGD/A

Departure

Time 2026-05-01 14:24
Airport Key West International Airport (KEYW)

Arrival

Time 2026-05-01 14:26
Airport Key West International Airport (KEYW)
Time Latitude Longitude Altitude Speed Heading
2026-05-01 13:55 24.55463 -81.76399 6 ft 0 kts 267°
2026-05-01 14:22 24.55464 -81.76400 8 ft 1 kts 266°
2026-05-01 14:22 24.55473 -81.76405 43 ft 1 kts 260°
2026-05-01 14:22 24.55248 -81.76689 180 ft 102 kts 248°
2026-05-01 14:22 24.55003 -81.77572 238 ft 137 kts 245°
2026-05-01 14:23 24.54737 -81.78614 356 ft 140 kts 257°
2026-05-01 14:23 24.54555 -81.79641 370 ft 137 kts 258°
2026-05-01 14:23 24.54473 -81.80708 267 ft 143 kts 282°
2026-05-01 14:23 24.55204 -81.81153 399 ft 130 kts 18°
2026-05-01 14:24 24.56106 -81.80860 228 ft 143 kts 21°
2026-05-01 14:24 24.56949 -81.80417 406 ft 126 kts 35°
2026-05-01 14:24 24.57233 -81.79640 675 ft 102 kts 85°
2026-05-01 14:24 24.57457 -81.78821 634 ft 121 kts 76°
2026-05-01 14:25 24.57662 -81.77905 543 ft 133 kts 80°
2026-05-01 14:25 24.57834 -81.76891 488 ft 134 kts 81°
2026-05-01 14:25 24.58064 -81.75878 364 ft 137 kts 79°
2026-05-01 14:25 24.58157 -81.74993 330 ft 96 kts 99°
2026-05-01 14:26 24.58154 -81.74441 162 ft 51 kts 99°
2026-05-01 14:26 24.58155 -81.74217 10 ft 1 kts 115°
2026-05-01 14:26 24.58110 -81.73917 273 ft 89 kts 98°
2026-05-01 14:27 24.57808 -81.73167 334 ft 127 kts 150°
2026-05-01 14:27 24.57010 -81.72933 198 ft 113 kts 152°
2026-05-01 14:27 24.56381 -81.72413 71 ft 114 kts 167°
2026-05-01 14:28 24.55718 -81.73690 88 ft 109 kts 263°
2026-05-01 14:28 24.55515 -81.74493 182 ft 109 kts 259°
2026-05-01 14:28 24.55504 -81.75247 101 ft 82 kts 273°
2026-05-01 14:28 24.55491 -81.75497 34 ft 5 kts 262°
2026-05-01 14:29 24.55494 -81.75503 13 ft 0 kts 261°
2026-05-01 14:29 24.55492 -81.75518 41 ft 16 kts 254°
2026-05-01 14:30 24.55295 -81.76946 609 ft 98 kts 262°
2026-05-01 14:30 24.55114 -81.76972 123 ft 69 kts 77°
2026-05-01 14:30 24.55268 -81.76289 220 ft 95 kts 87°
2026-05-01 14:31 24.55449 -81.75604 16 ft 0 kts 85°
2026-05-01 14:31 24.55466 -81.75549 145 ft 28 kts 73°
2026-05-01 14:31 24.55503 -81.75535 330 ft 6 kts 66°
2026-05-01 14:32 24.55533 -81.75550 259 ft 5 kts 67°
2026-05-01 14:32 24.55564 -81.75564 156 ft 5 kts 66°
2026-05-01 14:32 24.55450 -81.75604 30 ft 5 kts 81°
2026-05-01 14:32 24.55475 -81.75612 58 ft 26 kts 27°
2026-05-01 14:33 24.55503 -81.75681 13 ft 0 kts 305°